Darstellungsparameter: Aktuell verwendete Einstellungen:
Skalierung der Graphiken ... ?
xyx+y,   Skalierungsfaktor:      Skalierung: Modus: x, Faktor: 1
Darstellungszeitraum ... ?
Vom - - bis: - -   Zeitraum: 09.03.2019 - 09.03.2019
Min/Max/Avg-Anzeige ... ?
Zeige MMA aktuell
Zeige MMA Monat
Zeige MMA alles
Zeige --A aktuell
Zeige --A Monat
Zeige --A alles
Keine MMA-Anzeige
MMA:
Keine MMA-Graphiken
MMA-Basis: 09.03.2019 - 09.03.2019
Quicknavigation für Darstellung... ?
Tage:      1T, 2T, 3T, 5T -1T -2T -3T -5T +1T +2T +3T +5T
Wochen: 1W, 2W, 3W -1W -2W -3W +1W +2W +3W
Monate: 1M, 3M, 6M -1M -3M -6M +1M +3M +6M
Jahre:    1J, 3J, 5J, 10J -1J -3J -5J -10J +1J +3J +5J +10J
Nutze für die Darstellung ... ?
Originaldaten oder Mittelwerte auf ...
Stundenbasis Tagesbasis Wochenbasis
Monatsbasis Jahresbasis      Datenbasis: Original-Daten
Darstellen als:
Statistik (Auto) Statistik J:M      Darstellung:
Zur Graphik,    zurück zur Übersicht aller Sensoren.
 
Tabellarische Datenbersicht: ?
 
Sensor: Nr:Datum:Temp:Feuchte:Taupunkt:
Aussen-T/F 1 09-03-2019 00:00:00 8.4 C 77 % 4.61 C
2 09-03-2019 00:05:00 8.4 C 76 % 4.42 C
3 09-03-2019 00:10:00 8.4 C 77 % 4.61 C
4 09-03-2019 00:15:00 8.4 C 76 % 4.42 C
5 09-03-2019 00:20:00 8.5 C 76 % 4.52 C
6 09-03-2019 00:25:00 8.5 C 75 % 4.33 C
7 09-03-2019 00:30:00 8.6 C 75 % 4.43 C
8 09-03-2019 00:35:00 8.6 C 76 % 4.62 C
9 09-03-2019 00:40:00 8.7 C 75 % 4.52 C
10 09-03-2019 00:45:00 8.7 C 75 % 4.52 C
11 09-03-2019 00:50:00 8.8 C 74 % 4.43 C
12 09-03-2019 00:55:00 8.8 C 74 % 4.43 C
13 09-03-2019 01:00:00 8.9 C 74 % 4.53 C
14 09-03-2019 01:05:00 9 C 73 % 4.43 C
15 09-03-2019 01:10:00 9.1 C 73 % 4.52 C
16 09-03-2019 01:15:00 9.1 C 73 % 4.52 C
17 09-03-2019 01:20:00 9.1 C 74 % 4.72 C
18 09-03-2019 01:25:00 9.1 C 73 % 4.52 C
19 09-03-2019 01:30:00 9.2 C 72 % 4.42 C
20 09-03-2019 01:35:00 9.2 C 72 % 4.42 C
21 09-03-2019 01:40:00 9.3 C 72 % 4.52 C
22 09-03-2019 01:45:00 9.3 C 72 % 4.52 C
23 09-03-2019 01:50:00 9.3 C 72 % 4.52 C
24 09-03-2019 01:55:00 9.3 C 72 % 4.52 C
25 09-03-2019 02:00:00 9.3 C 73 % 4.72 C
Sensor: Nr:Datum:Temp:Feuchte:Taupunkt:
Aussen-T/F 26 09-03-2019 02:05:00 9.3 C 72 % 4.52 C
27 09-03-2019 02:10:00 9.3 C 72 % 4.52 C
28 09-03-2019 02:15:00 9.4 C 72 % 4.62 C
29 09-03-2019 02:20:00 9.4 C 73 % 4.81 C
30 09-03-2019 02:25:00 9.4 C 72 % 4.62 C
31 09-03-2019 02:30:00 9.4 C 72 % 4.62 C
32 09-03-2019 02:35:00 9.4 C 72 % 4.62 C
33 09-03-2019 02:40:00 9.4 C 73 % 4.81 C
34 09-03-2019 02:45:00 9.4 C 73 % 4.81 C
35 09-03-2019 02:50:00 9.4 C 72 % 4.62 C
36 09-03-2019 02:55:00 9.4 C 73 % 4.81 C
37 09-03-2019 03:00:00 9.3 C 73 % 4.72 C
38 09-03-2019 03:05:00 9.3 C 74 % 4.91 C
39 09-03-2019 03:10:00 9.3 C 74 % 4.91 C
40 09-03-2019 03:15:00 9.3 C 74 % 4.91 C
41 09-03-2019 03:20:00 9.2 C 74 % 4.81 C
42 09-03-2019 03:25:00 9.2 C 74 % 4.81 C
43 09-03-2019 03:30:00 9.2 C 76 % 5.2 C
44 09-03-2019 03:35:00 8.9 C 78 % 5.28 C
45 09-03-2019 03:40:00 8.8 C 79 % 5.36 C
46 09-03-2019 03:45:00 8.7 C 80 % 5.45 C
47 09-03-2019 03:50:00 8.6 C 80 % 5.35 C
48 09-03-2019 03:55:00 8.6 C 81 % 5.53 C
49 09-03-2019 04:00:00 8.4 C 82 % 5.51 C
50 09-03-2019 04:05:00 8.3 C 83 % 5.59 C
Sensor: Nr:Datum:Temp:Feuchte:Taupunkt:
Aussen-T/F 51 09-03-2019 04:10:00 8.2 C 84 % 5.66 C
52 09-03-2019 04:15:00 8.1 C 85 % 5.73 C
53 09-03-2019 04:20:00 7.9 C 85 % 5.54 C
54 09-03-2019 04:25:00 7.8 C 85 % 5.44 C
55 09-03-2019 04:30:00 7.8 C 85 % 5.44 C
56 09-03-2019 04:35:00 7.8 C 86 % 5.61 C
57 09-03-2019 04:40:00 7.8 C 86 % 5.61 C
58 09-03-2019 04:45:00 7.8 C 86 % 5.61 C
59 09-03-2019 04:50:00 7.8 C 86 % 5.61 C
60 09-03-2019 04:55:00 7.8 C 86 % 5.61 C
61 09-03-2019 05:00:00 7.8 C 86 % 5.61 C
62 09-03-2019 05:05:00 7.8 C 86 % 5.61 C
63 09-03-2019 05:10:00 7.8 C 87 % 5.78 C
64 09-03-2019 05:15:00 7.8 C 87 % 5.78 C
65 09-03-2019 05:20:00 7.8 C 87 % 5.78 C
66 09-03-2019 05:25:00 7.8 C 88 % 5.94 C
67 09-03-2019 05:30:00 7.8 C 88 % 5.94 C
68 09-03-2019 05:35:00 7.7 C 88 % 5.84 C
69 09-03-2019 05:40:00 7.7 C 88 % 5.84 C
70 09-03-2019 05:45:00 7.7 C 88 % 5.84 C
71 09-03-2019 05:50:00 7.8 C 88 % 5.94 C
72 09-03-2019 05:55:00 7.8 C 88 % 5.94 C
73 09-03-2019 06:00:00 7.8 C 88 % 5.94 C
74 09-03-2019 06:05:00 7.9 C 88 % 6.04 C
75 09-03-2019 06:10:00 8 C 88 % 6.14 C
Sensor: Nr:Datum:Temp:Feuchte:Taupunkt:
Aussen-T/F 76 09-03-2019 06:15:00 8 C 88 % 6.14 C
77 09-03-2019 06:20:00 8.1 C 88 % 6.24 C
78 09-03-2019 06:25:00 8.1 C 88 % 6.24 C
79 09-03-2019 06:30:00 8.1 C 88 % 6.24 C
80 09-03-2019 06:35:00 8.1 C 88 % 6.24 C
81 09-03-2019 06:40:00 8.2 C 88 % 6.33 C
82 09-03-2019 06:45:00 8.2 C 88 % 6.33 C
83 09-03-2019 06:50:00 8.2 C 88 % 6.33 C
84 09-03-2019 06:55:00 8.3 C 88 % 6.43 C
85 09-03-2019 07:00:00 8.3 C 88 % 6.43 C
86 09-03-2019 07:05:00 8.3 C 88 % 6.43 C
87 09-03-2019 07:10:00 8.4 C 88 % 6.53 C
88 09-03-2019 07:15:00 8.5 C 88 % 6.63 C
89 09-03-2019 07:20:00 8.6 C 88 % 6.73 C
90 09-03-2019 07:25:00 8.6 C 88 % 6.73 C
91 09-03-2019 07:30:00 8.7 C 87 % 6.66 C
92 09-03-2019 07:35:00 8.7 C 87 % 6.66 C
93 09-03-2019 07:40:00 8.8 C 87 % 6.76 C
94 09-03-2019 07:45:00 8.9 C 86 % 6.69 C
95 09-03-2019 07:50:00 8.9 C 86 % 6.69 C
96 09-03-2019 07:55:00 8.9 C 86 % 6.69 C
97 09-03-2019 08:00:00 8.9 C 86 % 6.69 C
98 09-03-2019 08:05:00 9 C 86 % 6.79 C
99 09-03-2019 08:10:00 9.2 C 86 % 6.98 C
100 09-03-2019 08:15:00 9.3 C 86 % 7.08 C
Sensor: Nr:Datum:Temp:Feuchte:Taupunkt:
Aussen-T/F 101 09-03-2019 08:20:00 9.3 C 85 % 6.91 C
102 09-03-2019 08:25:00 9.3 C 85 % 6.91 C
103 09-03-2019 08:30:00 9.4 C 85 % 7.01 C
104 09-03-2019 08:35:00 9.6 C 85 % 7.21 C
105 09-03-2019 08:40:00 9.7 C 85 % 7.3 C
106 09-03-2019 08:45:00 9.8 C 85 % 7.4 C
107 09-03-2019 08:50:00 9.9 C 85 % 7.5 C
108 09-03-2019 08:55:00 10 C 84 % 7.43 C
109 09-03-2019 09:00:00 10.1 C 84 % 7.52 C
110 09-03-2019 09:05:00 10.1 C 84 % 7.52 C
111 09-03-2019 09:10:00 10.1 C 84 % 7.52 C
112 09-03-2019 09:15:00 10.1 C 84 % 7.52 C
113 09-03-2019 09:20:00 10.1 C 84 % 7.52 C
114 09-03-2019 09:25:00 10.1 C 84 % 7.52 C
115 09-03-2019 09:30:00 10.1 C 84 % 7.52 C
116 09-03-2019 09:35:00 10.2 C 84 % 7.62 C
117 09-03-2019 09:40:00 10.2 C 83 % 7.45 C
118 09-03-2019 09:45:00 10.2 C 83 % 7.45 C
119 09-03-2019 09:50:00 10.3 C 83 % 7.54 C
120 09-03-2019 09:55:00 10.3 C 83 % 7.54 C
121 09-03-2019 10:00:00 10.3 C 83 % 7.54 C
122 09-03-2019 10:05:00 10.3 C 82 % 7.37 C
123 09-03-2019 10:10:00 10.3 C 82 % 7.37 C
124 09-03-2019 10:15:00 10.3 C 82 % 7.37 C
125 09-03-2019 10:20:00 10.4 C 82 % 7.46 C
Sensor: Nr:Datum:Temp:Feuchte:Taupunkt:
Aussen-T/F 126 09-03-2019 10:25:00 10.5 C 81 % 7.38 C
127 09-03-2019 10:30:00 10.6 C 81 % 7.48 C
128 09-03-2019 10:35:00 10.6 C 81 % 7.48 C
129 09-03-2019 10:40:00 10.7 C 80 % 7.4 C
130 09-03-2019 10:45:00 10.7 C 81 % 7.58 C
131 09-03-2019 10:50:00 10.7 C 81 % 7.58 C
132 09-03-2019 10:55:00 10.7 C 81 % 7.58 C
133 09-03-2019 11:00:00 10.7 C 81 % 7.58 C
134 09-03-2019 11:05:00 10.7 C 81 % 7.58 C
135 09-03-2019 11:10:00 10.7 C 80 % 7.4 C
136 09-03-2019 11:15:00 10.8 C 81 % 7.67 C
137 09-03-2019 11:20:00 10.8 C 80 % 7.49 C
138 09-03-2019 11:25:00 10.8 C 80 % 7.49 C
139 09-03-2019 11:30:00 10.9 C 80 % 7.59 C
140 09-03-2019 11:35:00 11 C 80 % 7.69 C
141 09-03-2019 11:40:00 11.1 C 79 % 7.6 C
142 09-03-2019 11:45:00 11.1 C 79 % 7.6 C
143 09-03-2019 11:50:00 11.2 C 79 % 7.7 C
144 09-03-2019 11:55:00 11.3 C 78 % 7.61 C
145 09-03-2019 12:00:00 11.4 C 78 % 7.71 C
146 09-03-2019 12:05:00 11.4 C 77 % 7.52 C
147 09-03-2019 12:10:00 11.5 C 78 % 7.8 C
148 09-03-2019 12:15:00 11.5 C 77 % 7.61 C
149 09-03-2019 12:20:00 11.5 C 77 % 7.61 C
150 09-03-2019 12:25:00 11.6 C 77 % 7.71 C
Sensor: Nr:Datum:Temp:Feuchte:Taupunkt:
Aussen-T/F 151 09-03-2019 12:30:00 11.7 C 77 % 7.81 C
152 09-03-2019 12:35:00 11.8 C 77 % 7.9 C
153 09-03-2019 12:40:00 11.9 C 76 % 7.81 C
154 09-03-2019 12:45:00 12.1 C 76 % 8 C
155 09-03-2019 12:50:00 12.1 C 75 % 7.81 C
156 09-03-2019 12:55:00 12.1 C 75 % 7.81 C
157 09-03-2019 13:00:00 12.1 C 76 % 8 C
158 09-03-2019 13:05:00 12.1 C 76 % 8 C
159 09-03-2019 13:10:00 12.2 C 76 % 8.1 C
160 09-03-2019 13:15:00 12.3 C 75 % 8 C
161 09-03-2019 13:20:00 12.4 C 75 % 8.1 C
162 09-03-2019 13:25:00 12.5 C 75 % 8.19 C
163 09-03-2019 13:30:00 12.6 C 74 % 8.09 C
164 09-03-2019 13:35:00 12.7 C 74 % 8.19 C
165 09-03-2019 13:40:00 12.7 C 74 % 8.19 C
166 09-03-2019 13:45:00 12.7 C 74 % 8.19 C
167 09-03-2019 13:50:00 12.9 C 73 % 8.18 C
168 09-03-2019 13:55:00 13.1 C 73 % 8.38 C
169 09-03-2019 14:00:00 13.3 C 72 % 8.36 C
170 09-03-2019 14:05:00 13.6 C 70 % 8.24 C
171 09-03-2019 14:10:00 13.6 C 70 % 8.24 C
172 09-03-2019 14:15:00 13.6 C 69 % 8.03 C
173 09-03-2019 14:20:00 13.7 C 70 % 8.33 C
174 09-03-2019 14:25:00 13.7 C 70 % 8.33 C
175 09-03-2019 14:30:00 13.6 C 68 % 7.81 C
Sensor: Nr:Datum:Temp:Feuchte:Taupunkt:
Aussen-T/F 176 09-03-2019 14:35:00 13.6 C 69 % 8.03 C
177 09-03-2019 14:40:00 13.6 C 69 % 8.03 C
178 09-03-2019 14:45:00 13.3 C 70 % 7.95 C
179 09-03-2019 14:50:00 13.2 C 70 % 7.86 C
180 09-03-2019 14:55:00 13 C 70 % 7.66 C
181 09-03-2019 15:00:00 12.9 C 71 % 7.78 C
182 09-03-2019 15:05:00 13 C 71 % 7.87 C
183 09-03-2019 15:10:00 13.1 C 70 % 7.76 C
184 09-03-2019 15:15:00 13.1 C 70 % 7.76 C
185 09-03-2019 15:20:00 13.1 C 69 % 7.55 C
186 09-03-2019 15:25:00 13.1 C 69 % 7.55 C
187 09-03-2019 15:30:00 13.2 C 69 % 7.64 C
188 09-03-2019 15:35:00 13.4 C 69 % 7.84 C
189 09-03-2019 15:40:00 13.7 C 68 % 7.91 C
190 09-03-2019 15:45:00 13.8 C 67 % 7.79 C
191 09-03-2019 15:50:00 13.7 C 66 % 7.47 C
192 09-03-2019 15:55:00 13.6 C 67 % 7.6 C
193 09-03-2019 16:00:00 13.7 C 67 % 7.69 C
194 09-03-2019 16:05:00 13.7 C 65 % 7.25 C
195 09-03-2019 16:10:00 13.6 C 65 % 7.15 C
196 09-03-2019 16:15:00 13.4 C 67 % 7.4 C
197 09-03-2019 16:20:00 13.3 C 67 % 7.31 C
198 09-03-2019 16:25:00 13.2 C 67 % 7.21 C
199 09-03-2019 16:30:00 13.3 C 66 % 7.09 C
200 09-03-2019 16:35:00 13.4 C 61 % 6.04 C
Sensor: Nr:Datum:Temp:Feuchte:Taupunkt:
Aussen-T/F 201 09-03-2019 16:40:00 13.3 C 59 % 5.47 C
202 09-03-2019 16:45:00 13.3 C 59 % 5.47 C
203 09-03-2019 16:50:00 13.2 C 59 % 5.37 C
204 09-03-2019 16:55:00 13.3 C 59 % 5.47 C
205 09-03-2019 17:00:00 13.3 C 59 % 5.47 C
206 09-03-2019 17:05:00 13.4 C 60 % 5.8 C
207 09-03-2019 17:10:00 13.5 C 60 % 5.9 C
208 09-03-2019 17:15:00 13.4 C 60 % 5.8 C
209 09-03-2019 17:20:00 13.2 C 60 % 5.61 C
210 09-03-2019 17:25:00 13.1 C 60 % 5.52 C
211 09-03-2019 17:30:00 13.1 C 61 % 5.76 C
212 09-03-2019 17:35:00 13.1 C 61 % 5.76 C
213 09-03-2019 17:40:00 12.9 C 62 % 5.8 C
214 09-03-2019 17:45:00 12.7 C 62 % 5.62 C
215 09-03-2019 17:50:00 12.6 C 61 % 5.29 C
216 09-03-2019 17:55:00 12.4 C 62 % 5.33 C
217 09-03-2019 18:00:00 12.3 C 63 % 5.47 C
218 09-03-2019 18:05:00 12.2 C 63 % 5.37 C
219 09-03-2019 18:10:00 12.1 C 63 % 5.28 C
220 09-03-2019 18:15:00 12 C 63 % 5.18 C
221 09-03-2019 18:20:00 11.9 C 63 % 5.09 C
222 09-03-2019 18:25:00 11.9 C 63 % 5.09 C
223 09-03-2019 18:30:00 11.8 C 63 % 5 C
224 09-03-2019 18:35:00 11.9 C 62 % 4.86 C
225 09-03-2019 18:40:00 12 C 62 % 4.96 C
Sensor: Nr:Datum:Temp:Feuchte:Taupunkt:
Aussen-T/F 226 09-03-2019 18:45:00 11.9 C 62 % 4.86 C
227 09-03-2019 18:50:00 12.1 C 62 % 5.05 C
228 09-03-2019 18:55:00 12.1 C 62 % 5.05 C
229 09-03-2019 19:00:00 12.1 C 63 % 5.28 C
230 09-03-2019 19:05:00 12 C 66 % 5.85 C
231 09-03-2019 19:10:00 11.4 C 69 % 5.92 C
232 09-03-2019 19:15:00 11.1 C 72 % 6.25 C
233 09-03-2019 19:20:00 10.8 C 73 % 6.16 C
234 09-03-2019 19:25:00 10.7 C 74 % 6.26 C
235 09-03-2019 19:30:00 10.4 C 77 % 6.55 C
236 09-03-2019 19:35:00 10.2 C 78 % 6.54 C
237 09-03-2019 19:40:00 9.9 C 79 % 6.43 C
238 09-03-2019 19:45:00 9.8 C 80 % 6.52 C
239 09-03-2019 19:50:00 9.8 C 80 % 6.52 C
240 09-03-2019 19:55:00 9.7 C 80 % 6.42 C
241 09-03-2019 20:00:00 9.7 C 80 % 6.42 C
242 09-03-2019 20:05:00 9.6 C 81 % 6.5 C
243 09-03-2019 20:10:00 9.6 C 81 % 6.5 C
244 09-03-2019 20:15:00 9.5 C 81 % 6.41 C
245 09-03-2019 20:20:00 9.5 C 82 % 6.59 C
246 09-03-2019 20:25:00 9.4 C 83 % 6.66 C
247 09-03-2019 20:30:00 9.4 C 83 % 6.66 C
248 09-03-2019 20:35:00 9.4 C 83 % 6.66 C
249 09-03-2019 20:40:00 9.4 C 83 % 6.66 C
250 09-03-2019 20:45:00 9.3 C 83 % 6.57 C
Sensor: Nr:Datum:Temp:Feuchte:Taupunkt:
Aussen-T/F 251 09-03-2019 20:50:00 9.3 C 83 % 6.57 C
252 09-03-2019 20:55:00 9.3 C 84 % 6.74 C
253 09-03-2019 21:00:00 9.3 C 84 % 6.74 C
254 09-03-2019 21:05:00 9.3 C 83 % 6.57 C
255 09-03-2019 21:10:00 9.7 C 76 % 5.68 C
256 09-03-2019 21:15:00 10.2 C 79 % 6.73 C
257 09-03-2019 21:20:00 10.2 C 80 % 6.91 C
258 09-03-2019 21:25:00 10 C 81 % 6.89 C
259 09-03-2019 21:30:00 9.8 C 82 % 6.88 C
260 09-03-2019 21:35:00 9.7 C 83 % 6.96 C
261 09-03-2019 21:40:00 9.6 C 84 % 7.03 C
262 09-03-2019 21:45:00 9.5 C 84 % 6.94 C
263 09-03-2019 21:50:00 9.4 C 85 % 7.01 C
264 09-03-2019 21:55:00 9.3 C 85 % 6.91 C
265 09-03-2019 22:00:00 9.3 C 85 % 6.91 C
266 09-03-2019 22:05:00 9.2 C 85 % 6.81 C
267 09-03-2019 22:10:00 9.2 C 85 % 6.81 C
268 09-03-2019 22:15:00 9.2 C 86 % 6.98 C
269 09-03-2019 22:20:00 9.2 C 86 % 6.98 C
270 09-03-2019 22:25:00 9.2 C 82 % 6.29 C
271 09-03-2019 22:30:00 9.4 C 79 % 5.95 C
272 09-03-2019 22:35:00 9.8 C 76 % 5.78 C
273 09-03-2019 22:40:00 10 C 75 % 5.78 C
274 09-03-2019 22:45:00 10.2 C 74 % 5.78 C
275 09-03-2019 22:50:00 10.3 C 74 % 5.88 C
Sensor: Nr:Datum:Temp:Feuchte:Taupunkt:
Aussen-T/F 276 09-03-2019 22:55:00 10.3 C 73 % 5.68 C
277 09-03-2019 23:00:00 10.4 C 73 % 5.78 C
278 09-03-2019 23:05:00 10.4 C 72 % 5.58 C
279 09-03-2019 23:10:00 10.4 C 72 % 5.58 C
280 09-03-2019 23:15:00 10.4 C 71 % 5.38 C
281 09-03-2019 23:20:00 10.3 C 71 % 5.28 C
282 09-03-2019 23:25:00 10.4 C 71 % 5.38 C
283 09-03-2019 23:30:00 10.4 C 71 % 5.38 C
284 09-03-2019 23:35:00 10.3 C 71 % 5.28 C
285 09-03-2019 23:40:00 10.3 C 71 % 5.28 C
286 09-03-2019 23:45:00 10.3 C 71 % 5.28 C
287 09-03-2019 23:50:00 10.3 C 71 % 5.28 C
288 09-03-2019 23:55:00 10.2 C 71 % 5.18 C

Legende:
   Min
   Max


Maximal/Minimal-Werte vom 09.03.2019 - 09.03.2019

Sensor Min Max Avg
Temp
(Aussen-T/F)
7.7 °C
09-03-2019  05:35:00
13.8 °C
09-03-2019  15:45:00
10.37 °C
Feuchte
(Aussen-T/F)
59 %
09-03-2019  16:40:00
88 %
09-03-2019  05:25:00
76.72 %
Taupunkt
(Aussen-T/F)
4.33 C
09-03-2019  00:25:00
8.38 C
09-03-2019  13:55:00
6.35 C

Die Daten stammen von einer Davis Vantage Pro 2 Wetter-Station und werden unter Linux mit der Software wview2wettercgi und aufbereitet. Alle Angaben erfolgen ohne Gewähr für ihre Vollständigkeit oder Richtigkeit.
Kontakt: Rainer Krienke krienke@uni-koblenz.de . Meine Webseiten an der Uni Koblenz oder privat.
Version: $Revision: 0.78 $